Regional Weather Roundup
Issued by NWS Raleigh/Durham, NC

Home | Current Version | Previous Version | Text Only | Print | Product List | Glossary On
Versions: 1 2 3 4 5 6 7 8 9 10 11 12 13 14 15 16 17 18 19 20 21 22 23 24 25 26 27 28 29 30 31 32 33 34 35 36 37 38 39 40 41 42 43 44 45 46 47 48 49 50
605
ASUS42 KRAH 151410
RWRRAH
NORTH CAROLINA WEATHER ROUNDUP
NATIONAL WEATHER SERVICE RALEIGH NC
1000 AM EDT SUN SEP 15 2019

NOTE: "FAIR" INDICATES FEW OR NO CLOUDS BELOW 12,000 FEET WITH NO
SIGNIFICANT WEATHER AND/OR OBSTRUCTIONS TO VISIBILITY.

NCZ001-053-055-056-065-067-151500-
WESTERN NORTH CAROLINA

CITY           SKY/WX    TMP DP  RH WIND       PRES   REMARKS
ASHEVILLE      FOG       69  66  90 N3        30.27R VSB 3/4
JEFFERSON      FOG       62  62 100 CALM      30.31S VSB 3/4
HICKORY        CLOUDY    72  70  93 W3        30.21S FOG
WILKESBORO     NOT AVBL
RUTHERFORDTON  CLOUDY    72  72 100 CALM      30.23R
MOUNT AIRY     FAIR      77  69  77 CALM      30.23F
BOONE          FAIR      69  60  73 CALM      30.31S
$$

NCZ021-022-025-041-071-084-088-151500-
CENTRAL NORTH CAROLINA

CITY           SKY/WX    TMP DP  RH WIND       PRES   REMARKS
CHARLOTTE      FAIR      81  68  64 NE3       30.19R
GREENSBORO     FAIR      78  70  76 CALM      30.19S
WINSTON-SALEM  FAIR      79  68  69 E3        30.20S
RALEIGH-DURHAM FAIR      79  69  71 CALM      30.18S
FORT BRAGG     FAIR      79  73  80 NE5       30.16S
FAYETTEVILLE   FAIR      79  74  84 NE3       30.16S
BURLINGTON     CLOUDY    80  69  69 CALM      30.18S
ROXBORO        CLOUDY    73  68  83 CALM      30.21S
HENDERSON      CLOUDY    74  67  79 CALM      30.19S
LOUISBURG      FAIR      77  70  78 E3        30.20S
LAURINBURG     FAIR      79  71  76 NE8       30.17S
$$

NCZ011-015-027-028-043-044-047-080-103-151500-
NORTHEASTERN NORTH CAROLINA

CITY           SKY/WX    TMP DP  RH WIND       PRES   REMARKS
ROCKY MT-WILSO CLOUDY    76  73  91 NE5       30.18R
GREENVILLE     PTSUNNY   77  73  88 NE5       30.18S
WASHINGTON     PTSUNNY   79  73  83 E6        30.17S
ELIZABETH CITY PTSUNNY   80  74  81 NE7       30.16S
MANTEO         NOT AVBL
CAPE HATTERAS  PTSUNNY  N/A N/A N/A VRB5      30.15S
$$

NCZ078-087-090-091-093-098-101-151500-
SOUTHEASTERN NORTH CAROLINA

CITY           SKY/WX    TMP DP  RH WIND       PRES   REMARKS
GOLDSBORO      NOT AVBL
KINSTON        CLOUDY    79  73  83 E6        30.17F
KENANSVILLE    FAIR      77  73  88 E3        30.17S
NEW BERN       CLOUDY    76  74  93 N3        30.17S
CHERRY POINT   CLOUDY    81  74  79 N5        30.16F
BEAUFORT       FAIR      83  74  74 NE5       30.14F
JACKSONVILLE   FAIR      78  73  84 NE3       30.15S
WILMINGTON     FAIR      83  74  74 NE6       30.14S
$$





USA.gov is the U.S. government's official web portal to all federal, state and local government web resources and services.